[[{"header":{"parameterUnit":"m.s-1","parameterCategory":1,"la1":30.2991,"la2":30.254,"lo1":-89.0895,"lo2":-89.0444,"dy":0.0017,"dx":0.0017,"nx":28,"ny":28,"refTime":"2024-07-22T03:00:00:Z","depth":0,"parameterNumber":2,"parameterNumberName":"U-component_of_WINDS"},"data":[0,0,0,0,0,0,0,0,0,0,0,0,0,0,0,0,0,0,0,0,0,0,0,0,0,0,0,0,0,0,0,0,0,0,0,0,0,0,0,0,0,0,0,0,0,0,0,0,0,0,0,0,0,0,0,0,0,0,3.5441,3.5442,0,3.5507,3.5508,3.5509,3.5439,3.5436,3.5433,3.5431,3.5496,3.55,3.5504,0,0,0,0,0,0,0,0,0,0,0,0,0,3.5251,3.5254,3.5441,3.5442,3.5443,3.5507,3.5508,3.5509,3.5439,3.5436,3.5433,3.543,3.5494,3.5499,3.5504,0,0,0,0,0,0,0,0,0,0,0,0,0,3.5327,3.5256,3.5441,3.5416,3.5414,3.5507,3.5508,3.5509,3.544,3.5436,3.5432,3.5428,3.5492,3.5499,3.5505,3.5624,0,0,3.5524,3.5527,0,0,0,0,0,0,0,0,3.5322,3.5334,3.5419,3.5418,3.5416,3.5461,3.5464,3.5548,3.5441,3.543,3.5431,3.5426,3.5487,3.5493,3.5515,3.5627,3.563,3.5525,3.5529,3.5531,3.5533,0,0,0,0,0,0,0,3.5317,3.533,3.5467,3.542,3.5419,3.54,3.5406,3.548,3.548,3.5431,3.5426,3.5435,3.5485,3.5509,3.5516,3.5631,3.5525,3.553,3.5534,3.5537,3.5842,3.5846,0,0,0,0,0,0,3.5315,3.5327,3.5465,3.5469,3.5359,3.5407,3.5414,3.545,3.5479,3.548,3.5438,3.5431,3.55,3.5508,3.5518,3.5657,3.5531,3.5537,3.5541,3.5837,3.5843,3.5847,0,0,0,0,0,0,3.5311,3.5328,3.5462,3.5397,3.5412,3.5414,3.5456,3.5454,3.5477,3.5485,3.5484,3.5462,3.5497,3.5509,3.5598,3.5658,3.554,3.5546,3.5832,3.5839,3.5845,3.5938,0,0,0,0,0,0,3.5306,3.5327,3.5374,3.5398,3.5416,3.5543,3.546,3.5458,3.5488,3.548,3.5507,3.5508,3.5495,3.5589,3.5604,3.5665,3.5551,3.5827,3.5835,3.5843,3.5929,3.5947,3.5961,0,0,0,0,0,3.53,3.5398,3.5377,3.5394,3.5475,3.5547,3.5557,3.5541,3.5494,3.5539,3.5544,3.5507,3.565,3.5598,3.5615,3.5679,3.5823,3.5833,3.5842,3.5922,3.5943,3.5961,0,0,0,0,0,0,3.538,3.54,3.5377,3.5486,3.5516,3.5535,3.5592,3.5564,3.5606,3.5597,3.5574,3.5581,3.5675,3.5686,3.5629,3.5794,3.5728,3.5742,3.5783,3.5803,3.5819,3.5813,3.5556,0,0,0,0,0,3.5411,3.5469,3.5483,3.5578,3.5593,3.5591,3.5622,3.5607,3.5635,3.5647,3.5658,3.5687,3.5737,3.5771,3.5819,3.5931,3.5934,3.5983,3.5999,3.6012,3.6023,3.608,3.6101,3.5879,3.5879,3.5879,0,0,3.5474,3.5492,3.553,3.5594,3.5615,3.5674,3.5601,3.5668,3.571,3.5657,3.5741,3.575,3.578,3.5881,3.5925,3.5893,3.6085,3.6024,3.6035,3.6039,3.6092,3.6113,3.6132,3.5886,3.5884,3.5883,0,0,3.5619,3.564,3.572,3.5742,3.5774,3.5771,3.579,3.5814,3.5818,3.5903,3.5863,3.5913,3.6002,3.6024,3.6047,3.6198,3.6164,3.6214,3.6297,3.6353,3.6371,3.6386,3.6437,3.6456,3.6226,3.6226,3.6226,0,3.5693,3.5781,3.5764,3.5832,3.586,3.5815,3.5894,3.5916,3.5962,3.5982,3.5945,3.6054,3.6071,3.6174,3.6211,3.6232,3.6251,3.621,3.637,3.6385,3.6399,3.6448,3.6467,3.6232,3.6231,3.6231,3.623,0,3.5869,3.5931,3.5992,3.6037,3.6072,3.6146,3.6137,3.6175,3.6157,3.6157,3.6242,3.6261,3.631,3.6334,3.6317,3.6435,3.6413,3.6374,3.6307,3.6426,3.6471,3.649,3.624,3.6238,3.6236,3.6235,0,0,3.6066,3.6101,3.6123,3.6142,3.6173,3.622,3.629,3.6339,3.637,3.6403,3.646,3.6535,3.6498,3.6524,3.6509,3.6559,3.6674,3.6513,3.6513,3.654,3.6801,3.6828,3.685,3.6653,3.6656,3.6659,3.6797,0,3.621,3.6333,3.6318,3.6435,3.649,3.6447,3.6508,3.6533,3.6535,3.6581,3.6583,3.6636,3.6585,3.66,3.6647,3.665,3.6726,3.664,3.6702,3.6705,3.6694,3.6874,3.6904,3.7034,3.6815,3.6818,3.682,0,3.6394,3.6433,3.6555,3.6576,3.6598,3.6654,3.6695,3.6741,3.6767,3.6765,3.6794,3.677,3.6838,3.6771,3.6863,3.6805,3.683,3.6835,3.684,3.6843,3.6768,3.688,3.7075,3.7094,3.6848,3.6846,3.6844,0,3.6521,3.6605,3.6688,3.6706,3.6733,3.6772,3.6785,3.6808,3.6838,3.6874,3.6892,3.6936,3.696,3.6994,3.6981,3.6934,3.7075,3.7008,3.7072,3.7073,3.7102,3.71,3.7302,3.7123,3.7122,3.7122,3.7122,0,3.6681,3.6757,3.6745,3.6796,3.6879,3.6861,3.6943,3.695,3.6971,3.7021,3.6987,3.7034,3.7016,3.7062,3.7052,3.7128,3.714,3.7138,3.7134,3.714,3.714,3.7154,3.7144,3.7127,3.7126,3.7125,3.7124,0,3.6837,3.6833,3.692,3.6939,3.6945,3.7005,3.702,3.7066,3.7066,3.7129,3.7143,3.7142,3.7194,3.7185,3.7243,3.7236,3.733,3.7317,3.7321,3.7317,3.7381,3.7374,3.7597,3.7624,3.743,3.7432,3.7434,0,3.6939,3.6996,3.702,3.7051,3.7067,3.7119,3.7148,3.7132,3.7164,3.7197,3.7239,3.7288,3.7326,3.7411,3.7414,3.7457,3.7443,3.7518,3.7449,3.7452,3.744,3.7436,3.744,3.7531,3.7533,3.7535,3.7536,0,3.7118,3.7112,3.7157,3.72,3.7236,3.727,3.7299,3.7327,3.7313,3.735,3.7403,3.7433,3.7491,3.7539,3.7579,3.759,3.756,3.7558,3.7575,3.758,3.7579,3.7577,3.7355,3.7553,3.7551,3.755,3.7549,3.7548,3.7247,3.7295,3.7319,3.7369,3.739,3.7418,3.7462,3.7467,3.7511,3.7557,3.7545,3.7604,3.7626,3.7677,3.7693,3.7738,3.771,3.7735,3.774,3.7746,3.7753,3.7574,3.7745,3.7745,3.7744,3.7744,3.7744,0,3.7422,3.7436,3.7482,3.7524,3.7563,3.7533,3.7563,3.7597,3.765,3.7674,3.7712,3.7771,3.7817,3.7824,3.7867,3.7901,3.7888,3.7913,3.7909,3.7911,3.7777,3.7757,3.7922,3.7922,3.7922,3.7922,3.7922,3.7922,3.7518,3.7596,3.7593,3.768,3.7692,3.7751,3.777,3.7795,3.7814,3.7882,3.792,3.7924,3.7941,3.7984,3.8024,3.8025,3.8041,3.807,3.8065,3.7939,3.7921,3.7904,3.7885,3.8075,3.8075,3.8196,3.8197,3.8198]},{"header":{"parameterUnit":"m.s-1","parameterCategory":1,"la1":30.2991,"la2":30.254,"lo1":-89.0895,"lo2":-89.0444,"dy":0.0017,"dx":0.0017,"nx":28,"ny":28,"refTime":"2024-07-22T03:00:00:Z","depth":0,"parameterNumber":3,"parameterNumberName":"V-component_of_WINDS"},"data":[0,0,0,0,0,0,0,0,0,0,0,0,0,0,0,0,0,0,0,0,0,0,0,0,0,0,0,0,0,0,0,0,0,0,0,0,0,0,0,0,0,0,0,0,0,0,0,0,0,0,0,0,0,0,0,0,0,0,1.0152,1.0152,0,1.0142,1.0142,1.0142,1.0088,1.0086,1.0085,1.0084,1.0076,1.0077,1.0078,0,0,0,0,0,0,0,0,0,0,0,0,0,1.0127,1.0127,1.0152,1.0152,1.0152,1.0142,1.0142,1.0142,1.0088,1.0086,1.0085,1.0083,1.0076,1.0077,1.0078,0,0,0,0,0,0,0,0,0,0,0,0,0,1.0129,1.0128,1.0152,1.0124,1.0121,1.0142,1.0142,1.0142,1.0088,1.0086,1.0084,1.0082,1.0075,1.0077,1.0078,1.0127,0,0,1.0083,1.0084,0,0,0,0,0,0,0,0,1.0129,1.013,1.0128,1.0126,1.0123,1.0114,1.013,1.0137,1.0089,1.0101,1.0084,1.0082,1.0091,1.0091,1.0093,1.0127,1.0127,1.0083,1.0084,1.0085,1.0085,0,0,0,0,0,0,0,1.0129,1.0131,1.0148,1.0128,1.0125,1.0112,1.011,1.0131,1.0107,1.01,1.0096,1.0095,1.0089,1.0092,1.0093,1.0126,1.0083,1.0085,1.0086,1.0086,1.0199,1.0201,0,0,0,0,0,0,1.0133,1.0131,1.0149,1.0148,1.0121,1.0114,1.0112,1.0119,1.0107,1.0103,1.0097,1.0093,1.009,1.0091,1.0092,1.0148,1.0085,1.0086,1.0087,1.0197,1.0199,1.0202,0,0,0,0,0,0,1.0132,1.0135,1.0149,1.0138,1.0139,1.0117,1.0125,1.012,1.0123,1.0104,1.01,1.0104,1.0089,1.009,1.0119,1.0147,1.0087,1.0088,1.0194,1.0198,1.02,1.026,0,0,0,0,0,0,1.0132,1.0135,1.0153,1.0139,1.014,1.0175,1.0127,1.0121,1.0125,1.012,1.011,1.0107,1.0087,1.0117,1.012,1.0148,1.009,1.0192,1.0196,1.0199,1.0255,1.0264,1.0272,0,0,0,0,0,1.0131,1.017,1.0154,1.0156,1.0162,1.0177,1.0177,1.0153,1.0128,1.0146,1.0134,1.0107,1.0143,1.012,1.0123,1.0152,1.019,1.0195,1.0199,1.0251,1.0262,1.0272,0,0,0,0,0,0,1.0189,1.0168,1.015,1.0186,1.0183,1.0168,1.0189,1.0166,1.0172,1.0167,1.0138,1.0136,1.0169,1.0163,1.0138,1.0198,1.0162,1.0168,1.02,1.0211,1.0219,1.022,1.0091,0,0,0,0,0,1.0206,1.0219,1.0201,1.0234,1.0234,1.0212,1.0218,1.02,1.0196,1.0195,1.0185,1.0184,1.0195,1.0203,1.0212,1.0254,1.0251,1.0276,1.0284,1.0291,1.0296,1.0318,1.0328,1.0217,1.0217,1.0217,0,0,1.0241,1.0231,1.0242,1.0246,1.0242,1.0257,1.0212,1.023,1.024,1.0198,1.0224,1.0217,1.0214,1.0249,1.0264,1.0245,1.0327,1.0297,1.0303,1.0304,1.0324,1.0334,1.0344,1.022,1.0219,1.0219,0,0,1.0312,1.0307,1.0333,1.033,1.0324,1.0309,1.0316,1.0304,1.0297,1.0322,1.0291,1.0304,1.0324,1.0322,1.0324,1.0395,1.037,1.0399,1.0444,1.0465,1.0474,1.0481,1.0506,1.0515,1.0404,1.0404,1.0404,0,1.0357,1.0377,1.0351,1.037,1.0373,1.0334,1.0362,1.036,1.0358,1.0361,1.034,1.0364,1.0359,1.0393,1.041,1.0413,1.042,1.0399,1.0475,1.0482,1.0489,1.0512,1.0521,1.0408,1.0407,1.0407,1.0407,0,1.0432,1.0447,1.0469,1.0467,1.0472,1.0496,1.0473,1.0482,1.0464,1.0451,1.0477,1.047,1.0477,1.0484,1.0466,1.0516,1.0504,1.048,1.0442,1.0503,1.0524,1.0533,1.0413,1.0411,1.041,1.0409,0,0,1.0539,1.0521,1.053,1.0528,1.0519,1.053,1.0552,1.0558,1.0566,1.0566,1.0583,1.0601,1.0578,1.058,1.0562,1.0581,1.0637,1.0554,1.0553,1.0569,1.069,1.0708,1.0718,1.0621,1.0622,1.0624,1.069,0,1.0607,1.0642,1.0618,1.0657,1.067,1.0635,1.0654,1.0651,1.064,1.065,1.0638,1.0651,1.062,1.0621,1.0638,1.0626,1.0661,1.0621,1.0637,1.0638,1.0638,1.073,1.0749,1.0811,1.0698,1.07,1.0701,0,1.069,1.0692,1.0732,1.072,1.0725,1.0742,1.0745,1.0755,1.0751,1.0742,1.0744,1.0722,1.0743,1.0707,1.0736,1.071,1.0715,1.0711,1.0712,1.0712,1.0672,1.0731,1.0831,1.084,1.0713,1.0712,1.0712,0,1.0762,1.0776,1.0802,1.0801,1.0788,1.0801,1.0796,1.079,1.0795,1.0798,1.08,1.0807,1.081,1.0815,1.0795,1.0771,1.0827,1.0789,1.082,1.082,1.0832,1.0832,1.0933,1.0838,1.0837,1.0837,1.0837,0,1.0839,1.0865,1.0834,1.085,1.0878,1.0851,1.088,1.0871,1.0866,1.088,1.085,1.0864,1.0837,1.0848,1.0833,1.0859,1.0861,1.0854,1.085,1.0856,1.0857,1.0859,1.0853,1.084,1.0839,1.0839,1.0838,0,1.0925,1.0905,1.093,1.0915,1.0912,1.0933,1.0921,1.0935,1.0922,1.094,1.0943,1.0923,1.0935,1.0916,1.0926,1.0915,1.0951,1.094,1.0952,1.0948,1.098,1.0977,1.1085,1.1098,1.0995,1.0996,1.0997,0,1.0975,1.0994,1.098,1.0987,1.0983,1.0995,1.0999,1.0974,1.098,1.0976,1.0991,1.1,1.1006,1.1027,1.1014,1.1021,1.101,1.1047,1.1011,1.1017,1.1009,1.1008,1.101,1.1055,1.1056,1.1057,1.1058,0,1.1065,1.1054,1.1061,1.1065,1.107,1.1072,1.1072,1.108,1.1053,1.1061,1.1072,1.1077,1.1086,1.1096,1.11,1.1096,1.1073,1.107,1.1077,1.1083,1.1089,1.1085,1.0971,1.1067,1.1066,1.1065,1.1065,1.1065,1.1134,1.1148,1.1141,1.115,1.1147,1.1147,1.1159,1.1148,1.1156,1.1161,1.1146,1.1161,1.1157,1.116,1.1158,1.117,1.1153,1.1164,1.1167,1.1169,1.1174,1.1088,1.1171,1.117,1.117,1.117,1.117,0,1.1222,1.1215,1.1223,1.1223,1.123,1.1207,1.1206,1.1213,1.1226,1.1223,1.123,1.1242,1.1251,1.1239,1.1246,1.1258,1.1247,1.1261,1.1259,1.1258,1.1189,1.1181,1.1269,1.1269,1.1269,1.1269,1.1269,1.1269,1.1268,1.1291,1.128,1.1302,1.1295,1.1308,1.1309,1.131,1.1307,1.1323,1.133,1.1321,1.1315,1.1321,1.1329,1.1325,1.1329,1.1346,1.1338,1.1273,1.1263,1.1254,1.1247,1.1347,1.1347,1.1407,1.1407,1.1408]}]]